Location: Piotrkow Trybunalski
(51.4000°N, 19.6830°E)
Time: 08:32:29
(UTC+01:00)

BlueWalker 3 - Pass Details

Date: 09 December 2022
Orbit: 499 x 517 km, 53.2° (Epoch: 29 January)

Event Time Altitude Azimuth Distance (km) Brightness Sun altitude
Rises 18:05:56 0° 289° (WNW) 2,630 6.6 -22.6°
Reaches altitude 10° 18:08:21 10° 277° (W) 1,736 5.7 -23.0°
Maximum altitude 18:11:42 28° 218° (SW) 990 3.8 -23.5°
Enters shadow 18:13:14 21° 181° (S) 1,177 3.8 -23.7°
